Regional Weather Roundup
Issued by NWS

Home | Current Version | Previous Version | Text Only | Print | Product List | Glossary Off
Versions: 1 2 3 4 5 6 7 8 9 10 11 12 13 14 15 16 17 18 19 20 21 22 23 24 25 26 27 28 29 30 31 32 33 34 35 36 37 38 39 40 41 42 43 44 45 46 47 48 49 50

000
ASUS43 KMPX 191410
RWRMN
WEATHER ROUNDUP FOR MINNESOTA
NATIONAL WEATHER SERVICE TWIN CITIES/CHANHASSEN MN
900 AM CDT TUE SEP 19 2017


NOTE: "FAIR" INDICATES FEW OR NO CLOUDS BELOW 12,000 FEET WITH NO
SIGNIFICANT WEATHER AND/OR OBSTRUCTIONS TO VISIBILITY. N/A MEANS
CURRENT SKY AND/OR WEATHER CONDITIONS ARE NOT AVAILABLE.

MNZ060>063-068>070-191500-
   Twin Cities Metro

CITY           SKY/WX    TMP DP  RH WIND       PRES   REMARKS
TWIN CITIES    MOSUNNY   63  59  87 SE12      29.91F
ST PAUL        SUNNY     62  59  90 SE13      29.92F
CRYSTAL        MOSUNNY   63  56  78 SE7       29.89F
BLAINE         MOSUNNY   64  61  88 SE8       29.91F
LAKEVILLE      SUNNY     61  61 100 SE5       29.91F
EDEN PRAIRIE   SUNNY     63  59  87 E9        29.89F
SOUTH ST PAUL  SUNNY     62  59  90 SE7       29.91F
LAKE ELMO      FAIR      61  59  94 SE6       29.94S
$$
MNZ001>005-007-008-013>017-022>024-027-028-191500-
   Northwest Minnesota

CITY           SKY/WX    TMP DP  RH WIND       PRES   REMARKS
BEMIDJI        CLOUDY    56  56  99 SE12      29.85F FOG
HALLOCK        CLOUDY    57  57 100 E13G18    29.75F FOG
ROSEAU         CLOUDY    55  52  88 SE10      29.82F HAZE
WARROAD        CLOUDY    55  52  88 SE9       29.85F FOG
THIEF RVR FALL CLOUDY    57  55  93 SE14      29.80F
CROOKSTON      CLOUDY    59  57  94 SE16      29.77S FOG
FOSSTON        CLOUDY    57  55  94 SE10      29.81S
DETROIT LAKES  FOG       57  57 100 SE15      29.81F VSB 3/4
MOORHEAD       CLOUDY    63  61  94 SE14G23   29.76F FOG
PARK RAPIDS    FOG       58  56  93 SE9       29.85F VSB 1
MAHNOMEN       CLOUDY    57  56  95 SE12      29.80F
$$
MNZ006-009>011-018-025>026-191500-
   North Central Minnesota

CITY           SKY/WX    TMP DP  RH WIND       PRES   REMARKS
BAUDETTE       CLOUDY    54  54 100 SE12      29.86F
FLAG ISLAND    PTSUNNY   55  52  88 SE10      29.85S
INTL FALLS     CLOUDY    56  53  90 SE7       29.92S
WASKISH        CLOUDY    55  55 100 SE8       29.87F FOG
BIG FORK       CLOUDY    57  55  94 SE6       29.90F FOG
LONGVILLE      CLOUDY    55  55 100 SE5       29.88F FOG
GRAND RAPIDS   CLOUDY    55  55 100 S8        29.93F FOG
CRANE LAKE     CLOUDY    55  54  94 CALM      29.95S
ORR            CLOUDY    55  52  88 SE5       29.91S
COOK           CLOUDY    57  55  94 SE7       29.94S
WALKER         CLOUDY    56  55  98 SE5       29.87S FOG
$$
MNZ012-019>021-037-191500-
   Northeast Minnesota

CITY           SKY/WX    TMP DP  RH WIND       PRES   REMARKS
DULUTH         CLOUDY    56  56 100 SE7       29.95S
ELY            CLOUDY    57  55  94 SE6       29.95F
HIBBING        CLOUDY    55  55 100 SE7       29.94R FOG
EVELETH        CLOUDY    58  56  95 SE5       29.96R
DULUTH HARBOR  CLOUDY    61  57  88 E6        29.95S
TWO HARBORS    CLOUDY    61  55  82 E5        29.95F
SILVER BAY     CLOUDY    59  57  94 NE3       29.96S
GRAND MARAIS     N/A     60  56  86 NE6       30.00S
$$
MNZ029>031-032-039>041-046>048-054>057-064-191500-
   West Central Minnesota

CITY           SKY/WX    TMP DP  RH WIND       PRES   REMARKS
FERGUS FALLS   CLOUDY    63  63 100 SE14      29.78F FOG
WHEATON        CLOUDY    64  63  94 SE14G20   29.77F FOG
MORRIS         CLOUDY    64  64 100 SE17      29.78F FOG
ALEXANDRIA     FOG       60  60 100 SE12      29.84F VSB 3/4
ELBOW LAKE     CLOUDY    61  61 100 E13G20    29.81S FOG
WADENA         FOG       57  57 100 SE12      29.84F VSB 1
GLENWOOD       FOG       61  61 100 SE12      29.84F VSB 1/4
APPLETON       CLOUDY    66  63  88 SE14      29.79S FOG
BENSON         FOG       64  63  94 S13G21    29.83S VSB 1
ORTONVILLE     CLOUDY    64  63  94 NE12G18   29.77F FOG
MADISON        CLOUDY    68  68 100 SE13      29.79S FOG
WILLMAR        FOG       63  63 100 SE9       29.85F VSB 3/4
$$
MNZ033>034-036-042>043-049>051-058-059-191500-
   Central Minnesota

CITY           SKY/WX    TMP DP  RH WIND       PRES   REMARKS
ST CLOUD       CLOUDY    59  59 100 E9        29.89F FOG
PAYNESVILLE    FOG       60  61 100 SE9       29.87F VSB 1/2
AITKIN         CLOUDY    57  55  94 SE7       29.90S FOG
PINE RIVER     CLOUDY    55  54  94 SE7       29.91F FOG
BRAINERD       FOG       57  57 100 SE5       29.90S VSB 1/2
STAPLES        CLOUDY    57  57 100 SE6       29.86F FOG
LONG PRAIRIE   LGT RAIN  57  57 100 E8        29.87S VSB 1/4
LITTLE FALLS   FOG       57  55  94 SE7       29.89S VSB 1/2
LITCHFIELD     DRZL/FOG  63  63 100 SE10      29.87F VSB 1/2
BUFFALO        CLOUDY    61  58  92 E6        29.90F
MAPLE LAKE     FOG       62  61  98 SE6       29.90S VSB 3/4
HUTCHINSON     FOG       63  63 100 E7        29.88F VSB 1/4
$$
MNZ037-044-045-052-053-191500-
   East Central Minnesota

CITY           SKY/WX    TMP DP  RH WIND       PRES   REMARKS
PRINCETON      CLOUDY    61  59  94 SE6       29.91F
MORA           CLOUDY    57  54  88 SE6       29.94S
CAMBRIDGE      CLOUDY    63  57  82 SE5       29.92S
RUSH CITY      CLOUDY    61  57  86 SE6       29.93S
MOOSE LAKE     CLOUDY    59  55  88 CALM      29.93R
HINCKLEY       CLOUDY    61  59  94 SE3       29.93S
CLOQUET        CLOUDY    57  55  94 SE5       29.95R
MCGREGOR       CLOUDY    57  55  94 SE7       29.93R
$$
MNZ071>073-080-081-089-090-097-098-191500-
   Southwest Minnesota

CITY           SKY/WX    TMP DP  RH WIND       PRES   REMARKS
MONTEVIDEO     CLOUDY    64  64 100 S13       29.81F FOG
GRANITE FALLS  CLOUDY    66  65  96 SE14      29.84S FOG
CANBY          CLOUDY    67  65  94 E10       29.79F FOG
MARSHALL       CLOUDY    66  64  94 SE17      29.81F
REDWOOD FALLS  CLOUDY    64  63  96 SE13      29.84F FOG
OLIVIA         FOG       63  61  94 SE10      29.84F VSB 1/2
PIPESTONE      CLOUDY    66  64  94 SE12      29.80F FOG
WORTHINGTON    FOG       64  64 100 SE9       29.84F VSB 1
JACKSON        FOG       64  64 100 SE10      29.86F VSB 3/4
TRACY          CLOUDY    66  66  99 SE12G18   29.83S FOG
SLAYTON        CLOUDY    64  63  95 SE10      29.84F FOG
$$
MNZ065>067-074>077-082>085-091>093-191500-
   South Central Minnesota

CITY           SKY/WX    TMP DP  RH WIND       PRES   REMARKS
MANKATO        CLOUDY    63  63 100 SE10      29.89S FOG
NEW ULM        FOG       64  63  94 SE9       29.87S VSB 3/4
ST JAMES       CLOUDY    64  64 100 SE8       29.88S FOG
FAIRMONT       CLOUDY    64  63  96 SE13      29.88S FOG
GLENCOE        FOG       63  63 100 SE6       29.88F VSB 1/4
FARIBAULT      SUNNY     64  61  88 SE5       29.91F
OWATONNA       CLOUDY    63  63 100 SE9G16    29.91F FOG
WASECA         FOG       61  61 100 SE7       29.92S VSB 3/4
ALBERT LEA     FOG       64  64 100 SE7       29.92S VSB 1/4
$$
MNZ078>079-086>088-094>096-191500-
   Southeast Minnesota

CITY           SKY/WX    TMP DP  RH WIND       PRES   REMARKS
ROCHESTER      SUNNY     61  59  93 SE9       29.95F
RED WING       SUNNY     64  57  77 SE9       29.92F
STANTON        SUNNY     64  59  83 S5        29.91S
DODGE CENTER   SUNNY     63  59  88 SE5       29.93F
WINONA         MOSUNNY   61  55  82 SE8       29.96F
AUSTIN         SUNNY     64  61  88 S3        29.93S
PRESTON        MOSUNNY   60  57  89 SE6       29.96R
$$
ABBREVIATIONS USED IN REMARKS
   TC - TEMPERATURES IN CELSIUS
  WCI - WIND CHILL INDEX
   HX - HEAT INDEX
  VSB - VISIBILITY
$$




USA.gov is the U.S. government's official web portal to all federal, state and local government web resources and services.